Location: Haliburton Scout Reserve
(45.0900°N, 78.3200°W)
Time: 21:38:54
(UTC-04:00)

DIWATA 2B (PO-101) - Visible Passes

Search period start: 18 May 2022 00:00
Search period end: 28 May 2022 00:00
Orbit: 584 x 599 km, 98.0° (Epoch: 18 May)

Date Brightness Start Highest point End Pass type
(mag) Time Alt. Az. Time Alt. Az. Time Alt. Az.
18 May ? 02:44:23 40° SE 02:45:38 59° ENE 02:49:43 10° N visible
18 May ? 04:20:56 13° W 04:21:32 13° W 04:23:28 10° WNW visible
19 May ? 02:52:48 44° SSE 02:54:01 73° ENE 02:58:09 10° N visible
19 May ? 04:29:22 10° W 04:30:02 10° W 04:30:46 10° WNW visible
20 May ? 03:01:13 46° SSE 03:02:24 90° N 03:06:35 10° NNW visible
21 May ? 01:34:14 10° E 01:35:51 12° ENE 01:37:30 10° NE visible
21 May ? 03:09:38 45° S 03:10:48 73° WSW 03:14:58 10° NNW visible
22 May ? 01:41:53 10° E 01:44:09 15° ENE 01:46:26 10° NNE visible
22 May ? 03:18:04 42° SSW 03:19:12 59° WSW 03:23:19 10° NNW visible
23 May ? 01:49:55 11° ESE 01:52:27 17° ENE 01:55:12 10° NNE visible
23 May ? 03:26:29 37° SW 03:27:37 47° W 03:31:39 10° NNW visible
24 May ? 01:58:20 13° ESE 02:00:45 21° ENE 02:03:52 10° NNE visible
24 May ? 03:34:53 31° SW 03:36:02 38° W 03:39:57 10° NNW visible
25 May ? 02:06:45 15° ESE 02:09:04 24° ENE 02:12:28 10° NNE visible
25 May ? 03:43:19 27° SW 03:44:28 31° W 03:48:12 10° NNW visible
26 May ? 02:15:10 18° ESE 02:17:24 29° ENE 02:21:01 10° N visible
26 May ? 03:51:44 22° WSW 03:52:54 26° W 03:56:24 10° NW visible
27 May ? 02:23:35 21° ESE 02:25:43 35° ENE 02:29:32 10° N visible
27 May ? 04:00:09 19° WSW 04:01:21 21° W 04:04:34 10° NW visible
